Time,TemperatureF,DewpointF,PressureIn,WindDirection,WindDirectionDegrees,WindSpeedMPH,WindSpeedGustMPH,Humidity,HourlyPrecipIn,Conditions,Clouds,dailyrainin,SoftwareType,DateUTC
2013-06-22 00:04:00,73.2,29.8,29.72,West,276,6.0,10.0,20,0.00,,---,0.00,VWS V14.01,2013-06-22 07:04:00,
2013-06-22 00:09:00,73.0,29.6,29.72,WNW,300,12.0,12.0,20,0.00,,---,0.00,VWS V14.01,2013-06-22 07:09:00,
2013-06-22 00:14:00,72.9,29.5,29.72,WNW,283,7.0,13.0,20,0.00,,---,0.00,VWS V14.01,2013-06-22 07:14:00,
2013-06-22 00:19:00,72.9,30.7,29.72,West,281,4.0,14.0,21,0.00,,---,0.00,VWS V14.01,2013-06-22 07:19:00,
2013-06-22 00:24:00,72.7,31.7,29.72,West,267,7.0,16.0,22,0.00,,---,0.00,VWS V14.01,2013-06-22 07:24:00,
2013-06-22 00:29:00,72.8,31.8,29.72,West,260,7.0,16.0,22,0.00,,---,0.00,VWS V14.01,2013-06-22 07:29:00,
2013-06-22 00:34:00,72.9,31.9,29.72,WSW,257,6.0,19.0,22,0.00,,---,0.00,VWS V14.01,2013-06-22 07:34:00,
2013-06-22 00:39:00,72.7,32.8,29.72,WNW,285,8.0,19.0,23,0.00,,---,0.00,VWS V14.01,2013-06-22 07:39:00,
2013-06-22 00:44:00,72.6,32.7,29.73,West,266,7.0,19.0,23,0.00,,---,0.00,VWS V14.01,2013-06-22 07:44:00,
2013-06-22 00:49:00,72.6,32.7,29.72,West,266,9.0,19.0,23,0.00,,---,0.00,VWS V14.01,2013-06-22 07:49:00,
2013-06-22 00:54:00,72.6,33.8,29.72,West,260,7.0,19.0,24,0.00,,---,0.00,VWS V14.01,2013-06-22 07:54:00,
2013-06-22 00:59:00,72.5,34.7,29.72,SW,235,8.0,9.0,25,0.00,,---,0.00,VWS V14.01,2013-06-22 07:59:00,
2013-06-22 01:04:00,72.4,34.6,29.72,West,278,6.0,16.0,25,0.00,,---,0.00,VWS V14.01,2013-06-22 08:04:00,
2013-06-22 01:09:00,72.4,35.6,29.72,West,262,11.0,17.0,26,0.00,,---,0.00,VWS V14.01,2013-06-22 08:09:00,
2013-06-22 01:14:00,72.3,36.5,29.72,West,276,7.0,18.0,27,0.00,,---,0.00,VWS V14.01,2013-06-22 08:14:00,
2013-06-22 01:19:00,72.2,36.4,29.72,WNW,285,5.0,18.0,27,0.00,,---,0.00,VWS V14.01,2013-06-22 08:19:00,
2013-06-22 01:24:00,72.1,36.3,29.72,West,264,10.0,18.0,27,0.00,,---,0.00,VWS V14.01,2013-06-22 08:24:00,
2013-06-22 01:29:00,72.0,36.2,29.72,West,278,4.0,19.0,27,0.00,,---,0.00,VWS V14.01,2013-06-22 08:29:00,
2013-06-22 01:34:00,72.0,37.1,29.72,WNW,297,8.0,19.0,28,0.00,,---,0.00,VWS V14.01,2013-06-22 08:34:00,
2013-06-22 01:39:00,72.0,37.1,29.71,West,278,6.0,19.0,28,0.00,,---,0.00,VWS V14.01,2013-06-22 08:39:00,
2013-06-22 01:44:00,71.9,38.0,29.72,West,276,4.0,19.0,29,0.00,,---,0.00,VWS V14.01,2013-06-22 08:44:00,
2013-06-22 01:49:00,71.9,38.0,29.72,SW,233,8.0,19.0,29,0.00,,---,0.00,VWS V14.01,2013-06-22 08:49:00,
2013-06-22 01:54:00,71.8,38.7,29.72,West,266,16.0,19.0,30,0.00,,---,0.00,VWS V14.01,2013-06-22 08:54:00,
2013-06-22 01:59:00,71.5,38.5,29.72,West,263,11.0,16.0,30,0.00,,---,0.00,VWS V14.01,2013-06-22 08:59:00,
2013-06-22 02:04:00,71.3,39.1,29.72,WSW,252,4.0,18.0,31,0.00,,---,0.00,VWS V14.01,2013-06-22 09:04:00,
2013-06-22 02:09:00,71.3,39.1,29.72,West,269,12.0,18.0,31,0.00,,---,0.00,VWS V14.01,2013-06-22 09:09:00,
2013-06-22 02:14:00,71.2,39.0,29.72,SW,232,7.0,18.0,31,0.00,,---,0.00,VWS V14.01,2013-06-22 09:14:00,
2013-06-22 02:19:00,71.2,39.9,29.72,West,264,11.0,19.0,32,0.00,,---,0.00,VWS V14.01,2013-06-22 09:19:00,
2013-06-22 02:24:00,71.1,39.8,29.72,West,279,6.0,19.0,32,0.00,,---,0.00,VWS V14.01,2013-06-22 09:24:00,
2013-06-22 02:29:00,70.9,39.6,29.72,West,260,1.0,19.0,32,0.00,,---,0.00,VWS V14.01,2013-06-22 09:29:00,
2013-06-22 02:34:00,70.9,39.6,29.72,West,265,11.0,19.0,32,0.00,,---,0.00,VWS V14.01,2013-06-22 09:34:00,
2013-06-22 02:39:00,70.9,39.6,29.72,West,262,9.0,19.0,32,0.00,,---,0.00,VWS V14.01,2013-06-22 09:39:00,
2013-06-22 02:44:00,70.7,39.4,29.72,WNW,291,4.0,19.0,32,0.00,,---,0.00,VWS V14.01,2013-06-22 09:44:00,
2013-06-22 02:49:00,70.7,39.4,29.72,WSW,256,5.0,19.0,32,0.00,,---,0.00,VWS V14.01,2013-06-22 09:49:00,
2013-06-22 02:54:00,70.6,39.3,29.72,West,281,10.0,19.0,32,0.00,,---,0.00,VWS V14.01,2013-06-22 09:54:00,
2013-06-22 03:00:00,70.5,39.2,29.72,WSW,250,4.0,10.0,32,0.00,,---,0.00,VWS V14.01,2013-06-22 10:00:00,
2013-06-22 03:05:00,70.3,39.9,29.72,WNW,291,5.0,13.0,33,0.00,,---,0.00,VWS V14.01,2013-06-22 10:05:00,
2013-06-22 03:10:00,70.3,39.9,29.72,West,281,12.0,16.0,33,0.00,,---,0.00,VWS V14.01,2013-06-22 10:10:00,
2013-06-22 03:15:00,70.2,39.8,29.72,West,269,4.0,16.0,33,0.00,,---,0.00,VWS V14.01,2013-06-22 10:15:00,
2013-06-22 03:20:00,70.2,39.8,29.72,WSW,246,12.0,16.0,33,0.00,,---,0.00,VWS V14.01,2013-06-22 10:20:00,
2013-06-22 03:25:00,70.2,39.8,29.72,West,278,15.0,19.0,33,0.00,,---,0.00,VWS V14.01,2013-06-22 10:25:00,
2013-06-22 03:30:00,70.2,39.8,29.72,West,269,8.0,19.0,33,0.00,,---,0.00,VWS V14.01,2013-06-22 10:30:00,
2013-06-22 03:35:00,70.1,38.9,29.72,WNW,285,8.0,21.0,32,0.00,,---,0.00,VWS V14.01,2013-06-22 10:35:00,
2013-06-22 03:40:00,70.0,38.8,29.72,SW,232,8.0,21.0,32,0.00,,---,0.00,VWS V14.01,2013-06-22 10:40:00,
2013-06-22 03:45:00,69.9,38.7,29.72,West,260,7.0,21.0,32,0.00,,---,0.00,VWS V14.01,2013-06-22 10:45:00,
2013-06-22 03:50:00,69.7,38.5,29.72,WSW,240,10.0,21.0,32,0.00,,---,0.00,VWS V14.01,2013-06-22 10:50:00,
2013-06-22 03:55:00,69.5,38.4,29.72,West,277,7.0,21.0,32,0.00,,---,0.00,VWS V14.01,2013-06-22 10:55:00,
2013-06-22 04:00:00,69.3,39.0,29.72,West,259,3.0,5.0,33,0.00,,---,0.00,VWS V14.01,2013-06-22 11:00:00,
2013-06-22 04:05:00,69.2,38.9,29.72,WNW,284,0.0,11.0,33,0.00,,---,0.00,VWS V14.01,2013-06-22 11:05:00,
2013-06-22 04:10:00,69.2,38.9,29.72,WNW,283,6.0,11.0,33,0.00,,---,0.00,VWS V14.01,2013-06-22 11:10:00,
2013-06-22 04:15:00,69.2,38.9,29.72,West,269,9.0,11.0,33,0.00,,---,0.00,VWS V14.01,2013-06-22 11:15:00,
2013-06-22 04:20:00,69.1,38.8,29.72,West,271,2.0,11.0,33,0.00,,---,0.00,VWS V14.01,2013-06-22 11:20:00,
2013-06-22 04:25:00,69.0,38.7,29.71,WSW,256,7.0,12.0,33,0.00,,---,0.00,VWS V14.01,2013-06-22 11:25:00,
2013-06-22 04:30:00,69.1,38.8,29.72,West,274,7.0,15.0,33,0.00,,---,0.00,VWS V14.01,2013-06-22 11:30:00,
2013-06-22 04:35:00,69.0,38.7,29.72,West,260,8.0,15.0,33,0.00,,---,0.00,VWS V14.01,2013-06-22 11:35:00,
2013-06-22 04:40:00,69.1,38.8,29.71,WSW,256,9.0,15.0,33,0.00,,---,0.00,VWS V14.01,2013-06-22 11:40:00,
2013-06-22 04:45:00,69.1,38.8,29.71,West,278,9.0,15.0,33,0.00,,---,0.00,VWS V14.01,2013-06-22 11:45:00,
2013-06-22 04:50:00,69.2,38.9,29.72,West,260,3.0,15.0,33,0.00,,---,0.00,VWS V14.01,2013-06-22 11:50:00,
2013-06-22 04:55:00,69.2,38.9,29.72,West,267,8.0,16.0,33,0.00,,---,0.00,VWS V14.01,2013-06-22 11:55:00,
2013-06-22 05:00:00,69.0,38.7,29.72,WNW,301,2.0,7.0,33,0.00,,---,0.00,VWS V14.01,2013-06-22 12:00:00,
2013-06-22 05:05:00,69.1,38.8,29.72,WSW,258,7.0,18.0,33,0.00,,---,0.00,VWS V14.01,2013-06-22 12:05:00,
2013-06-22 05:10:00,69.0,38.7,29.72,SSW,212,7.0,18.0,33,0.00,,---,0.00,VWS V14.01,2013-06-22 12:10:00,
2013-06-22 05:15:00,69.0,38.7,29.72,West,271,6.0,18.0,33,0.00,,---,0.00,VWS V14.01,2013-06-22 12:15:00,
2013-06-22 05:20:00,68.9,38.6,29.72,West,280,6.0,18.0,33,0.00,,---,0.00,VWS V14.01,2013-06-22 12:20:00,
2013-06-22 05:25:00,68.8,38.5,29.73,West,266,6.0,18.0,33,0.00,,---,0.00,VWS V14.01,2013-06-22 12:25:00,
2013-06-22 05:30:00,68.8,38.5,29.73,WSW,256,7.0,18.0,33,0.00,,---,0.00,VWS V14.01,2013-06-22 12:30:00,
2013-06-22 05:35:00,68.7,38.5,29.73,West,273,8.0,18.0,33,0.00,,---,0.00,VWS V14.01,2013-06-22 12:35:00,
2013-06-22 05:40:00,68.7,37.7,29.73,West,263,4.0,18.0,32,0.00,,---,0.00,VWS V14.01,2013-06-22 12:40:00,
2013-06-22 05:45:00,68.9,37.8,29.73,West,274,9.0,18.0,32,0.00,,---,0.00,VWS V14.01,2013-06-22 12:45:00,
2013-06-22 05:50:00,69.0,37.9,29.73,West,260,5.0,18.0,32,0.00,,---,0.00,VWS V14.01,2013-06-22 12:50:00,
2013-06-22 05:55:00,69.2,38.1,29.73,WNW,294,7.0,18.0,32,0.00,,---,0.00,VWS V14.01,2013-06-22 12:55:00,
2013-06-22 06:00:00,69.4,37.5,29.73,West,262,5.0,11.0,31,0.00,,---,0.00,VWS V14.01,2013-06-22 13:00:00,
2013-06-22 06:05:00,69.7,37.7,29.73,WNW,284,6.0,11.0,31,0.00,,---,0.00,VWS V14.01,2013-06-22 13:05:00,
2013-06-22 06:10:00,69.9,37.1,29.73,SW,233,9.0,11.0,30,0.00,,---,0.00,VWS V14.01,2013-06-22 13:10:00,
2013-06-22 06:15:00,70.1,37.3,29.73,West,260,3.0,11.0,30,0.00,,---,0.00,VWS V14.01,2013-06-22 13:15:00,
2013-06-22 06:20:00,70.3,37.4,29.73,West,280,0.0,11.0,30,0.00,,---,0.00,VWS V14.01,2013-06-22 13:20:00,
2013-06-22 06:25:00,70.6,37.7,29.73,WNW,285,5.0,11.0,30,0.00,,---,0.00,VWS V14.01,2013-06-22 13:25:00,
2013-06-22 06:30:00,70.7,36.9,29.73,West,274,0.0,11.0,29,0.00,,---,0.00,VWS V14.01,2013-06-22 13:30:00,
2013-06-22 06:35:00,71.0,37.2,29.73,WNW,291,0.0,11.0,29,0.00,,---,0.00,VWS V14.01,2013-06-22 13:35:00,
2013-06-22 06:40:00,71.3,37.4,29.73,West,271,0.0,11.0,29,0.00,,---,0.00,VWS V14.01,2013-06-22 13:40:00,
2013-06-22 06:45:00,71.5,37.6,29.74,West,259,0.0,11.0,29,0.00,,---,0.00,VWS V14.01,2013-06-22 13:45:00,
2013-06-22 06:50:00,71.6,38.6,29.74,West,260,0.0,11.0,30,0.00,,---,0.00,VWS V14.01,2013-06-22 13:50:00,
2013-06-22 06:55:00,72.2,39.1,29.74,West,259,0.0,11.0,30,0.00,,---,0.00,VWS V14.01,2013-06-22 13:55:00,
2013-06-22 07:00:00,73.9,38.8,29.74,WSW,258,0.0,0.0,28,0.00,,---,0.00,VWS V14.01,2013-06-22 14:00:00,
2013-06-22 07:05:00,74.3,39.1,29.74,NW,326,0.0,1.0,28,0.00,,---,0.00,VWS V14.01,2013-06-22 14:05:00,
2013-06-22 07:10:00,74.0,38.9,29.74,NNW,342,0.0,1.0,28,0.00,,---,0.00,VWS V14.01,2013-06-22 14:10:00,
2013-06-22 07:15:00,73.9,37.8,29.74,NW,314,0.0,1.0,27,0.00,,---,0.00,VWS V14.01,2013-06-22 14:15:00,
2013-06-22 07:20:00,74.1,38.0,29.74,NNW,348,0.0,1.0,27,0.00,,---,0.00,VWS V14.01,2013-06-22 14:20:00,
2013-06-22 07:25:00,74.7,37.6,29.74,NNW,344,0.0,1.0,26,0.00,,---,0.00,VWS V14.01,2013-06-22 14:25:00,
2013-06-22 07:30:00,74.4,37.3,29.74,NW,305,0.0,1.0,26,0.00,,---,0.00,VWS V14.01,2013-06-22 14:30:00,
2013-06-22 07:35:00,74.8,38.6,29.75,WNW,290,0.0,1.0,27,0.00,,---,0.00,VWS V14.01,2013-06-22 14:35:00,
2013-06-22 07:40:00,75.0,37.8,29.75,NNE,13,0.0,3.0,26,0.00,,---,0.00,VWS V14.01,2013-06-22 14:40:00,
2013-06-22 07:45:00,75.9,37.6,29.75,ESE,103,0.0,3.0,25,0.00,,---,0.00,VWS V14.01,2013-06-22 14:45:00,
2013-06-22 07:50:00,76.3,36.9,29.75,NW,320,0.0,3.0,24,0.00,,---,0.00,VWS V14.01,2013-06-22 14:50:00,
2013-06-22 07:55:00,76.6,36.1,29.75,NW,304,0.0,3.0,23,0.00,,---,0.00,VWS V14.01,2013-06-22 14:55:00,
2013-06-22 08:01:00,76.5,34.9,29.75,WNW,290,4.0,5.0,22,0.00,,---,0.00,VWS V14.01,2013-06-22 15:01:00,
2013-06-22 08:06:00,76.5,37.1,29.75,NW,319,0.0,5.0,24,0.00,,---,0.00,VWS V14.01,2013-06-22 15:06:00,
2013-06-22 08:11:00,76.7,36.2,29.75,West,274,0.0,5.0,23,0.00,,---,0.00,VWS V14.01,2013-06-22 15:11:00,
2013-06-22 08:16:00,77.2,35.5,29.75,WSW,240,0.0,5.0,22,0.00,,---,0.00,VWS V14.01,2013-06-22 15:16:00,
2013-06-22 08:21:00,77.5,34.5,29.75,SW,236,0.0,5.0,21,0.00,,---,0.00,VWS V14.01,2013-06-22 15:21:00,
2013-06-22 08:26:00,78.3,35.2,29.75,NW,308,2.0,8.0,21,0.00,,---,0.00,VWS V14.01,2013-06-22 15:26:00,
2013-06-22 08:31:00,78.4,35.3,29.75,WSW,245,2.0,8.0,21,0.00,,---,0.00,VWS V14.01,2013-06-22 15:31:00,
2013-06-22 08:36:00,78.7,34.3,29.75,WSW,252,0.0,8.0,20,0.00,,---,0.00,VWS V14.01,2013-06-22 15:36:00,
2013-06-22 08:41:00,79.1,35.8,29.75,NW,314,0.0,8.0,21,0.00,,---,0.00,VWS V14.01,2013-06-22 15:41:00,
2013-06-22 08:46:00,79.1,33.3,29.75,West,267,4.0,9.0,19,0.00,,---,0.00,VWS V14.01,2013-06-22 15:46:00,
2013-06-22 08:51:00,79.1,34.6,29.75,NW,323,4.0,9.0,20,0.00,,---,0.00,VWS V14.01,2013-06-22 15:51:00,
2013-06-22 08:56:00,79.3,34.8,29.75,WNW,297,4.0,9.0,20,0.00,,---,0.00,VWS V14.01,2013-06-22 15:56:00,
2013-06-22 09:01:00,79.7,33.8,29.75,WSW,245,0.0,3.0,19,0.00,,---,0.00,VWS V14.01,2013-06-22 16:01:00,
2013-06-22 09:06:00,80.1,35.5,29.75,North,356,4.0,9.0,20,0.00,,---,0.00,VWS V14.01,2013-06-22 16:06:00,
2013-06-22 09:11:00,80.2,34.2,29.75,WNW,293,3.0,9.0,19,0.00,,---,0.00,VWS V14.01,2013-06-22 16:11:00,
2013-06-22 09:16:00,80.4,33.1,29.75,NNW,345,0.0,9.0,18,0.00,,---,0.00,VWS V14.01,2013-06-22 16:16:00,
2013-06-22 09:21:00,80.5,33.1,29.75,NNW,346,0.0,9.0,18,0.00,,---,0.00,VWS V14.01,2013-06-22 16:21:00,
2013-06-22 09:26:00,81.8,34.2,29.75,SSW,201,0.0,9.0,18,0.00,,---,0.00,VWS V14.01,2013-06-22 16:26:00,
2013-06-22 09:31:00,82.4,31.8,29.75,ENE,65,0.0,9.0,16,0.00,,---,0.00,VWS V14.01,2013-06-22 16:31:00,
2013-06-22 09:36:00,81.9,31.4,29.74,NNW,329,3.0,9.0,16,0.00,,---,0.00,VWS V14.01,2013-06-22 16:36:00,
2013-06-22 09:41:00,81.4,32.5,29.75,WNW,293,5.0,9.0,17,0.00,,---,0.00,VWS V14.01,2013-06-22 16:41:00,
2013-06-22 09:46:00,81.2,32.3,29.75,NNE,30,0.0,9.0,17,0.00,,---,0.00,VWS V14.01,2013-06-22 16:46:00,
2013-06-22 09:51:00,82.1,34.4,29.74,North,11,2.0,9.0,18,0.00,,---,0.00,VWS V14.01,2013-06-22 16:51:00,
2013-06-22 09:56:00,82.3,33.2,29.74,West,274,3.0,9.0,17,0.00,,---,0.00,VWS V14.01,2013-06-22 16:56:00,
2013-06-22 10:01:00,81.9,31.4,29.74,WNW,288,0.0,2.0,16,0.00,,---,0.00,VWS V14.01,2013-06-22 17:01:00,
2013-06-22 10:06:00,82.4,31.8,29.74,NE,53,5.0,8.0,16,0.00,,---,0.00,VWS V14.01,2013-06-22 17:06:00,
2013-06-22 10:11:00,82.7,32.0,29.74,WNW,301,0.0,8.0,16,0.00,,---,0.00,VWS V14.01,2013-06-22 17:11:00,
2013-06-22 10:16:00,82.8,30.5,29.74,WNW,291,1.0,8.0,15,0.00,,---,0.00,VWS V14.01,2013-06-22 17:16:00,
2013-06-22 10:21:00,82.9,32.2,29.75,NW,308,0.0,8.0,16,0.00,,---,0.00,VWS V14.01,2013-06-22 17:21:00,
2013-06-22 10:26:00,83.7,32.8,29.74,WNW,292,0.0,8.0,16,0.00,,---,0.00,VWS V14.01,2013-06-22 17:26:00,
2013-06-22 10:31:00,83.5,32.6,29.75,NNW,337,1.0,8.0,16,0.00,,---,0.00,VWS V14.01,2013-06-22 17:31:00,
2013-06-22 10:36:00,83.7,34.3,29.74,NW,311,0.0,8.0,17,0.00,,---,0.00,VWS V14.01,2013-06-22 17:36:00,
2013-06-22 10:41:00,84.3,31.7,29.74,NE,47,1.0,8.0,15,0.00,,---,0.00,VWS V14.01,2013-06-22 17:41:00,
2013-06-22 10:46:00,84.0,31.4,29.75,NNE,25,2.0,8.0,15,0.00,,---,0.00,VWS V14.01,2013-06-22 17:46:00,
2013-06-22 10:51:00,84.1,31.5,29.74,North,9,4.0,8.0,15,0.00,,---,0.00,VWS V14.01,2013-06-22 17:51:00,
2013-06-22 10:56:00,84.1,31.5,29.74,East,83,5.0,10.0,15,0.00,,---,0.00,VWS V14.01,2013-06-22 17:56:00,
2013-06-22 11:01:00,84.3,31.7,29.74,North,354,0.0,4.0,15,0.00,,---,0.00,VWS V14.01,2013-06-22 18:01:00,
2013-06-22 11:06:00,85.3,30.8,29.74,ESE,105,0.0,6.0,14,0.00,,---,0.00,VWS V14.01,2013-06-22 18:06:00,
2013-06-22 11:11:00,85.7,31.1,29.74,ESE,113,0.0,9.0,14,0.00,,---,0.00,VWS V14.01,2013-06-22 18:11:00,
2013-06-22 11:16:00,85.5,30.9,29.74,ESE,106,0.0,9.0,14,0.00,,---,0.00,VWS V14.01,2013-06-22 18:16:00,
2013-06-22 11:21:00,85.3,30.8,29.74,North,359,6.0,9.0,14,0.00,,---,0.00,VWS V14.01,2013-06-22 18:21:00,
2013-06-22 11:26:00,85.2,32.4,29.74,NNE,23,0.0,9.0,15,0.00,,---,0.00,VWS V14.01,2013-06-22 18:26:00,
2013-06-22 11:31:00,85.5,30.9,29.73,NE,41,0.0,9.0,14,0.00,,---,0.00,VWS V14.01,2013-06-22 18:31:00,
2013-06-22 11:36:00,86.0,31.3,29.73,SW,228,2.0,9.0,14,0.00,,---,0.00,VWS V14.01,2013-06-22 18:36:00,
2013-06-22 11:41:00,86.5,31.7,29.73,SE,136,0.0,9.0,14,0.00,,---,0.00,VWS V14.01,2013-06-22 18:41:00,
2013-06-22 11:47:00,87.2,32.3,29.73,East,101,6.0,9.0,14,0.00,,---,0.00,VWS V14.01,2013-06-22 18:47:00,
2013-06-22 11:52:00,86.7,31.9,29.73,NNE,12,1.0,9.0,14,0.00,,---,0.00,VWS V14.01,2013-06-22 18:52:00,
2013-06-22 11:57:00,86.4,31.6,29.73,ESE,108,4.0,10.0,14,0.00,,---,0.00,VWS V14.01,2013-06-22 18:57:00,
2013-06-22 12:02:00,86.9,32.0,29.73,ESE,110,0.0,0.0,14,0.00,,---,0.00,VWS V14.01,2013-06-22 19:02:00,
2013-06-22 12:07:00,87.2,30.4,29.73,NNW,347,0.0,6.0,13,0.00,,---,0.00,VWS V14.01,2013-06-22 19:07:00,
2013-06-22 12:12:00,87.5,30.7,29.73,West,280,0.0,6.0,13,0.00,,---,0.00,VWS V14.01,2013-06-22 19:12:00,
2013-06-22 12:17:00,87.6,30.7,29.72,SE,136,0.0,6.0,13,0.00,,---,0.00,VWS V14.01,2013-06-22 19:17:00,
2013-06-22 12:22:00,88.1,31.1,29.72,East,95,0.0,6.0,13,0.00,,---,0.00,VWS V14.01,2013-06-22 19:22:00,
2013-06-22 12:27:00,88.0,31.0,29.72,NNE,33,0.0,6.0,13,0.00,,---,0.00,VWS V14.01,2013-06-22 19:27:00,
2013-06-22 12:32:00,88.9,31.8,29.72,ESE,111,1.0,6.0,13,0.00,,---,0.00,VWS V14.01,2013-06-22 19:32:00,
2013-06-22 12:37:00,89.2,32.0,29.72,ESE,107,1.0,6.0,13,0.00,,---,0.00,VWS V14.01,2013-06-22 19:37:00,
2013-06-22 12:42:00,88.5,31.4,29.72,NNE,23,0.0,6.0,13,0.00,,---,0.00,VWS V14.01,2013-06-22 19:42:00,
2013-06-22 12:47:00,89.2,33.8,29.72,SE,138,1.0,6.0,14,0.00,,---,0.00,VWS V14.01,2013-06-22 19:47:00,
2013-06-22 12:52:00,90.4,32.9,29.72,SSE,150,0.0,6.0,13,0.00,,---,0.00,VWS V14.01,2013-06-22 19:52:00,
2013-06-22 12:57:00,90.5,33.0,29.71,ENE,77,2.0,6.0,13,0.00,,---,0.00,VWS V14.01,2013-06-22 19:57:00,
2013-06-22 13:02:00,90.5,31.0,29.71,SE,128,1.0,5.0,12,0.00,,---,0.00,VWS V14.01,2013-06-22 20:02:00,
2013-06-22 13:07:00,91.2,33.5,29.71,SSW,212,7.0,7.0,13,0.00,,---,0.00,VWS V14.01,2013-06-22 20:07:00,
2013-06-22 13:12:00,90.7,31.2,29.71,South,186,1.0,7.0,12,0.00,,---,0.00,VWS V14.01,2013-06-22 20:12:00,
2013-06-22 13:17:00,90.8,33.2,29.70,South,174,4.0,7.0,13,0.00,,---,0.00,VWS V14.01,2013-06-22 20:17:00,
2013-06-22 13:22:00,91.0,33.4,29.70,SSE,158,5.0,8.0,13,0.00,,---,0.00,VWS V14.01,2013-06-22 20:22:00,
2013-06-22 13:27:00,90.8,31.2,29.70,SSE,148,3.0,8.0,12,0.00,,---,0.00,VWS V14.01,2013-06-22 20:27:00,
2013-06-22 13:32:00,91.2,31.6,29.69,South,191,4.0,8.0,12,0.00,,---,0.00,VWS V14.01,2013-06-22 20:32:00,
2013-06-22 13:37:00,91.1,31.5,29.69,South,170,0.0,8.0,12,0.00,,---,0.00,VWS V14.01,2013-06-22 20:37:00,
2013-06-22 13:42:00,91.3,33.6,29.69,WSW,246,6.0,8.0,13,0.00,,---,0.00,VWS V14.01,2013-06-22 20:42:00,
2013-06-22 13:47:00,90.7,31.2,29.69,WSW,241,0.0,8.0,12,0.00,,---,0.00,VWS V14.01,2013-06-22 20:47:00,
2013-06-22 13:52:00,91.2,29.4,29.69,South,179,1.0,8.0,11,0.00,,---,0.00,VWS V14.01,2013-06-22 20:52:00,
2013-06-22 13:57:00,91.3,31.6,29.69,South,180,4.0,8.0,12,0.00,,---,0.00,VWS V14.01,2013-06-22 20:57:00,
2013-06-22 14:02:00,91.1,31.5,29.69,East,101,4.0,6.0,12,0.00,,---,0.00,VWS V14.01,2013-06-22 21:02:00,
2013-06-22 14:07:00,90.3,32.8,29.68,ESE,112,3.0,6.0,13,0.00,,---,0.00,VWS V14.01,2013-06-22 21:07:00,
2013-06-22 14:12:00,90.6,33.1,29.68,South,181,0.0,9.0,13,0.00,,---,0.00,VWS V14.01,2013-06-22 21:12:00,
2013-06-22 14:17:00,91.1,33.5,29.68,NNE,15,0.0,9.0,13,0.00,,---,0.00,VWS V14.01,2013-06-22 21:17:00,
2013-06-22 14:22:00,91.6,31.9,29.67,SE,133,7.0,9.0,12,0.00,,---,0.00,VWS V14.01,2013-06-22 21:22:00,
2013-06-22 14:27:00,91.8,39.3,29.67,SSE,148,0.0,9.0,16,0.00,,---,0.00,VWS V14.01,2013-06-22 21:27:00,
2013-06-22 14:32:00,92.5,42.9,29.67,SSW,203,1.0,9.0,18,0.00,,---,0.00,VWS V14.01,2013-06-22 21:32:00,
2013-06-22 14:37:00,91.9,37.7,29.67,WNW,295,3.0,9.0,15,0.00,,---,0.00,VWS V14.01,2013-06-22 21:37:00,
2013-06-22 14:42:00,91.1,44.5,29.67,SW,229,2.0,9.0,20,0.00,,---,0.00,VWS V14.01,2013-06-22 21:42:00,
2013-06-22 14:47:00,91.5,46.1,29.67,SW,229,7.0,10.0,21,0.00,,---,0.00,VWS V14.01,2013-06-22 21:47:00,
2013-06-22 14:52:00,91.2,47.1,29.67,SW,232,16.0,16.0,22,0.00,,---,0.00,VWS V14.01,2013-06-22 21:52:00,
2013-06-22 14:57:00,90.8,46.8,29.67,SW,222,9.0,16.0,22,0.00,,---,0.00,VWS V14.01,2013-06-22 21:57:00,
2013-06-22 15:02:00,90.9,48.0,29.67,SW,229,10.0,13.0,23,0.00,,---,0.00,VWS V14.01,2013-06-22 22:02:00,
2013-06-22 15:07:00,90.2,48.6,29.67,SSW,210,5.0,15.0,24,0.00,,---,0.00,VWS V14.01,2013-06-22 22:07:00,
2013-06-22 15:12:00,89.7,47.0,29.67,West,273,6.0,16.0,23,0.00,,---,0.00,VWS V14.01,2013-06-22 22:12:00,
2013-06-22 15:17:00,89.8,49.3,29.67,SW,217,5.0,16.0,25,0.00,,---,0.00,VWS V14.01,2013-06-22 22:17:00,
2013-06-22 15:22:00,89.6,48.1,29.67,SW,223,13.0,18.0,24,0.00,,---,0.00,VWS V14.01,2013-06-22 22:22:00,
2013-06-22 15:27:00,89.4,49.0,29.66,South,177,13.0,18.0,25,0.00,,---,0.00,VWS V14.01,2013-06-22 22:27:00,
2013-06-22 15:32:00,89.3,48.9,29.66,SW,218,6.0,18.0,25,0.00,,---,0.00,VWS V14.01,2013-06-22 22:32:00,
2013-06-22 15:37:00,89.0,48.7,29.66,SSW,212,4.0,18.0,25,0.00,,---,0.00,VWS V14.01,2013-06-22 22:37:00,
2013-06-22 15:42:00,88.7,48.4,29.66,SSW,200,8.0,18.0,25,0.00,,---,0.00,VWS V14.01,2013-06-22 22:42:00,
2013-06-22 15:47:00,89.0,48.7,29.66,SSW,205,8.0,18.0,25,0.00,,---,0.00,VWS V14.01,2013-06-22 22:47:00,
2013-06-22 15:53:00,88.7,48.4,29.66,SW,229,8.0,18.0,25,0.00,,---,0.00,VWS V14.01,2013-06-22 22:53:00,
2013-06-22 15:58:00,88.5,48.2,29.66,SW,228,9.0,18.0,25,0.00,,---,0.00,VWS V14.01,2013-06-22 22:58:00,
2013-06-22 16:03:00,88.4,49.2,29.66,West,259,8.0,15.0,26,0.00,,---,0.00,VWS V14.01,2013-06-22 23:03:00,
2013-06-22 16:08:00,88.3,48.1,29.66,WSW,238,12.0,16.0,25,0.00,,---,0.00,VWS V14.01,2013-06-22 23:08:00,
2013-06-22 16:13:00,88.3,48.1,29.66,WSW,253,3.0,16.0,25,0.00,,---,0.00,VWS V14.01,2013-06-22 23:13:00,
2013-06-22 16:18:00,88.1,48.9,29.65,SW,226,15.0,19.0,26,0.00,,---,0.00,VWS V14.01,2013-06-22 23:18:00,
2013-06-22 16:23:00,87.6,48.5,29.65,SSW,208,6.0,19.0,26,0.00,,---,0.00,VWS V14.01,2013-06-22 23:23:00,
2013-06-22 16:28:00,87.7,48.6,29.65,SW,219,12.0,19.0,26,0.00,,---,0.00,VWS V14.01,2013-06-22 23:28:00,
2013-06-22 16:33:00,87.7,49.6,29.65,SW,229,12.0,19.0,27,0.00,,---,0.00,VWS V14.01,2013-06-22 23:33:00,
2013-06-22 16:38:00,87.9,49.8,29.65,SW,225,7.0,19.0,27,0.00,,---,0.00,VWS V14.01,2013-06-22 23:38:00,
2013-06-22 16:43:00,87.8,48.7,29.65,SW,235,5.0,19.0,26,0.00,,---,0.00,VWS V14.01,2013-06-22 23:43:00,
2013-06-22 16:48:00,88.0,49.9,29.65,WSW,242,4.0,19.0,27,0.00,,---,0.00,VWS V14.01,2013-06-22 23:48:00,
2013-06-22 16:53:00,87.8,49.7,29.65,WNW,295,6.0,19.0,27,0.00,,---,0.00,VWS V14.01,2013-06-22 23:53:00,
2013-06-22 16:58:00,87.7,50.6,29.65,SSW,212,7.0,19.0,28,0.00,,---,0.00,VWS V14.01,2013-06-22 23:58:00,
2013-06-22 17:03:00,87.9,49.8,29.65,SSW,197,12.0,14.0,27,0.00,,---,0.00,VWS V14.01,2013-06-23 00:03:00,
2013-06-22 17:08:00,87.5,50.4,29.64,SW,219,9.0,19.0,28,0.00,,---,0.00,VWS V14.01,2013-06-23 00:08:00,
2013-06-22 17:13:00,87.2,51.1,29.64,WSW,257,8.0,19.0,29,0.00,,---,0.00,VWS V14.01,2013-06-23 00:13:00,
2013-06-22 17:18:00,86.8,50.8,29.64,South,181,12.0,19.0,29,0.00,,---,0.00,VWS V14.01,2013-06-23 00:18:00,
2013-06-22 17:23:00,86.4,51.3,29.64,SSW,201,14.0,19.0,30,0.00,,---,0.00,VWS V14.01,2013-06-23 00:23:00,
2013-06-22 17:28:00,86.3,51.2,29.64,SW,227,13.0,19.0,30,0.00,,---,0.00,VWS V14.01,2013-06-23 00:28:00,
2013-06-22 17:33:00,86.1,51.1,29.64,SSE,168,11.0,19.0,30,0.00,,---,0.00,VWS V14.01,2013-06-23 00:33:00,
2013-06-22 17:38:00,86.0,51.0,29.64,WSW,249,14.0,19.0,30,0.00,,---,0.00,VWS V14.01,2013-06-23 00:38:00,
2013-06-22 17:43:00,85.7,51.6,29.64,SW,229,16.0,19.0,31,0.00,,---,0.00,VWS V14.01,2013-06-23 00:43:00,
2013-06-22 17:48:00,85.3,51.3,29.64,SW,228,8.0,19.0,31,0.00,,---,0.00,VWS V14.01,2013-06-23 00:48:00,
2013-06-22 17:53:00,85.0,51.9,29.64,WSW,256,5.0,19.0,32,0.00,,---,0.00,VWS V14.01,2013-06-23 00:53:00,
2013-06-22 17:58:00,84.8,51.7,29.65,West,274,8.0,21.0,32,0.00,,---,0.00,VWS V14.01,2013-06-23 00:58:00,
2013-06-22 18:03:00,84.6,51.5,29.65,SSW,211,14.0,18.0,32,0.00,,---,0.00,VWS V14.01,2013-06-23 01:03:00,
2013-06-22 18:08:00,84.3,52.1,29.65,SSW,213,7.0,20.0,33,0.00,,---,0.00,VWS V14.01,2013-06-23 01:08:00,
2013-06-22 18:13:00,84.2,52.0,29.65,West,269,4.0,20.0,33,0.00,,---,0.00,VWS V14.01,2013-06-23 01:13:00,
2013-06-22 18:18:00,83.8,51.7,29.65,SW,216,7.0,20.0,33,0.00,,---,0.00,VWS V14.01,2013-06-23 01:18:00,
2013-06-22 18:23:00,83.5,52.2,29.65,WSW,243,7.0,20.0,34,0.00,,---,0.00,VWS V14.01,2013-06-23 01:23:00,
2013-06-22 18:28:00,83.4,52.1,29.65,SSW,200,6.0,20.0,34,0.00,,---,0.00,VWS V14.01,2013-06-23 01:28:00,
2013-06-22 18:33:00,83.4,52.1,29.65,SW,231,7.0,20.0,34,0.00,,---,0.00,VWS V14.01,2013-06-23 01:33:00,
2013-06-22 18:38:00,83.2,51.9,29.65,WSW,243,13.0,20.0,34,0.00,,---,0.00,VWS V14.01,2013-06-23 01:38:00,
2013-06-22 18:43:00,82.8,52.4,29.65,SW,231,8.0,20.0,35,0.00,,---,0.00,VWS V14.01,2013-06-23 01:43:00,
2013-06-22 18:48:00,82.7,52.3,29.65,WSW,243,7.0,20.0,35,0.00,,---,0.00,VWS V14.01,2013-06-23 01:48:00,
2013-06-22 18:53:00,82.3,51.9,29.65,SSW,194,6.0,20.0,35,0.00,,---,0.00,VWS V14.01,2013-06-23 01:53:00,
2013-06-22 18:58:00,82.1,51.8,29.66,SSW,197,3.0,20.0,35,0.00,,---,0.00,VWS V14.01,2013-06-23 01:58:00,
2013-06-22 19:03:00,81.9,52.3,29.66,SW,225,9.0,15.0,36,0.00,,---,0.00,VWS V14.01,2013-06-23 02:03:00,
2013-06-22 19:08:00,81.6,52.1,29.66,SW,226,7.0,15.0,36,0.00,,---,0.00,VWS V14.01,2013-06-23 02:08:00,
2013-06-22 19:13:00,81.2,51.7,29.66,SW,231,11.0,17.0,36,0.00,,---,0.00,VWS V14.01,2013-06-23 02:13:00,
2013-06-22 19:18:00,81.1,51.7,29.66,SW,233,7.0,17.0,36,0.00,,---,0.00,VWS V14.01,2013-06-23 02:18:00,
2013-06-22 19:23:00,81.0,51.6,29.66,WSW,249,8.0,17.0,36,0.00,,---,0.00,VWS V14.01,2013-06-23 02:23:00,
2013-06-22 19:28:00,80.8,52.1,29.66,West,264,8.0,17.0,37,0.00,,---,0.00,VWS V14.01,2013-06-23 02:28:00,
2013-06-22 19:33:00,80.4,51.8,29.66,SSW,206,8.0,17.0,37,0.00,,---,0.00,VWS V14.01,2013-06-23 02:33:00,
2013-06-22 19:39:00,79.8,52.0,29.67,West,272,4.0,17.0,38,0.00,,---,0.00,VWS V14.01,2013-06-23 02:39:00,
2013-06-22 19:44:00,79.5,51.7,29.67,SW,235,3.0,17.0,38,0.00,,---,0.00,VWS V14.01,2013-06-23 02:44:00,
2013-06-22 19:49:00,79.2,51.4,29.67,WSW,258,4.0,17.0,38,0.00,,---,0.00,VWS V14.01,2013-06-23 02:49:00,
2013-06-22 19:54:00,78.8,51.8,29.67,SW,228,4.0,17.0,39,0.00,,---,0.00,VWS V14.01,2013-06-23 02:54:00,
2013-06-22 19:59:00,78.1,51.8,29.67,WNW,295,6.0,10.0,40,0.00,,---,0.00,VWS V14.01,2013-06-23 02:59:00,
2013-06-22 20:04:00,77.5,52.0,29.67,WSW,256,10.0,11.0,41,0.00,,---,0.00,VWS V14.01,2013-06-23 03:04:00,
2013-06-22 20:09:00,77.0,52.2,29.67,WSW,238,6.0,11.0,42,0.00,,---,0.00,VWS V14.01,2013-06-23 03:09:00,
2013-06-22 20:14:00,76.5,51.7,29.67,SW,232,11.0,13.0,42,0.00,,---,0.00,VWS V14.01,2013-06-23 03:14:00,
2013-06-22 20:19:00,76.0,51.9,29.67,South,188,6.0,13.0,43,0.00,,---,0.00,VWS V14.01,2013-06-23 03:19:00,
2013-06-22 20:24:00,75.6,52.2,29.67,SW,219,6.0,13.0,44,0.00,,---,0.00,VWS V14.01,2013-06-23 03:24:00,
2013-06-22 20:29:00,75.3,51.9,29.67,SSW,204,1.0,13.0,44,0.00,,---,0.00,VWS V14.01,2013-06-23 03:29:00,
2013-06-22 20:34:00,75.0,51.0,29.67,West,259,5.0,13.0,43,0.00,,---,0.00,VWS V14.01,2013-06-23 03:34:00,
2013-06-22 20:39:00,74.8,50.8,29.67,SSW,212,3.0,13.0,43,0.00,,---,0.00,VWS V14.01,2013-06-23 03:39:00,
2013-06-22 20:44:00,74.7,50.7,29.67,WSW,246,0.0,13.0,43,0.00,,---,0.00,VWS V14.01,2013-06-23 03:44:00,
2013-06-22 20:49:00,74.5,50.6,29.67,SW,225,0.0,13.0,43,0.00,,---,0.00,VWS V14.01,2013-06-23 03:49:00,
2013-06-22 20:54:00,74.4,48.5,29.67,SW,222,3.0,13.0,40,0.00,,---,0.00,VWS V14.01,2013-06-23 03:54:00,
2013-06-22 20:59:00,74.9,44.7,29.67,WSW,253,8.0,11.0,34,0.00,,---,0.00,VWS V14.01,2013-06-23 03:59:00,
2013-06-22 21:01:00,75.1,44.1,29.67,WNW,283,7.0,13.0,33,0.00,,---,0.00,VWS V14.01,2013-06-23 04:01:00,
2013-06-22 21:04:00,75.4,42.7,29.67,West,274,7.0,14.0,31,0.00,,---,0.00,VWS V14.01,2013-06-23 04:04:00,
2013-06-22 21:06:00,75.4,43.5,29.67,SW,236,5.0,14.0,32,0.00,,---,0.00,VWS V14.01,2013-06-23 04:06:00,
2013-06-22 21:07:00,75.4,43.5,29.67,SW,233,6.0,14.0,32,0.00,,---,0.00,VWS V14.01,2013-06-23 04:07:00,
2013-06-22 21:12:00,75.5,41.9,29.67,WSW,255,5.0,14.0,30,0.00,,---,0.00,VWS V14.01,2013-06-23 04:12:00,
2013-06-22 21:18:00,75.6,41.1,29.67,WSW,252,8.0,14.0,29,0.00,,---,0.00,VWS V14.01,2013-06-23 04:18:00,
2013-06-22 21:20:00,75.6,40.2,29.67,WSW,256,6.0,14.0,28,0.00,,---,0.00,VWS V14.01,2013-06-23 04:20:00,
2013-06-22 21:25:00,75.6,40.2,29.67,WSW,240,4.0,14.0,28,0.00,,---,0.00,VWS V14.01,2013-06-23 04:25:00,
2013-06-22 21:30:00,75.4,39.1,29.67,SW,219,0.0,14.0,27,0.00,,---,0.00,VWS V14.01,2013-06-23 04:30:00,
2013-06-22 21:35:00,75.3,40.9,29.68,SW,236,0.0,14.0,29,0.00,,---,0.00,VWS V14.01,2013-06-23 04:35:00,
2013-06-22 21:40:00,74.9,43.1,29.68,SSW,205,0.0,14.0,32,0.00,,---,0.00,VWS V14.01,2013-06-23 04:40:00,
2013-06-22 21:45:00,74.6,42.8,29.68,WSW,257,0.0,14.0,32,0.00,,---,0.00,VWS V14.01,2013-06-23 04:45:00,
2013-06-22 21:50:00,74.5,41.9,29.68,SW,218,0.0,14.0,31,0.00,,---,0.00,VWS V14.01,2013-06-23 04:50:00,
2013-06-22 21:55:00,74.5,41.1,29.68,SW,224,0.0,14.0,30,0.00,,---,0.00,VWS V14.01,2013-06-23 04:55:00,
2013-06-22 22:00:00,74.8,39.5,29.68,WSW,249,4.0,4.0,28,0.00,,---,0.00,VWS V14.01,2013-06-23 05:00:00,
2013-06-22 22:05:00,75.1,38.9,29.68,WSW,252,5.0,8.0,27,0.00,,---,0.00,VWS V14.01,2013-06-23 05:05:00,
2013-06-22 22:10:00,75.1,38.9,29.68,SSW,205,4.0,8.0,27,0.00,,---,0.00,VWS V14.01,2013-06-23 05:10:00,
2013-06-22 22:15:00,75.1,38.9,29.68,SW,221,0.0,8.0,27,0.00,,---,0.00,VWS V14.01,2013-06-23 05:15:00,
2013-06-22 22:20:00,75.0,38.8,29.68,SW,231,7.0,8.0,27,0.00,,---,0.00,VWS V14.01,2013-06-23 05:20:00,
2013-06-22 22:25:00,75.0,38.8,29.68,WNW,283,5.0,10.0,27,0.00,,---,0.00,VWS V14.01,2013-06-23 05:25:00,
2013-06-22 22:30:00,75.2,38.0,29.68,SW,224,0.0,10.0,26,0.00,,---,0.00,VWS V14.01,2013-06-23 05:30:00,
2013-06-22 22:35:00,75.3,38.1,29.68,SW,232,0.0,10.0,26,0.00,,---,0.00,VWS V14.01,2013-06-23 05:35:00,
2013-06-22 22:40:00,75.0,38.8,29.68,SSW,210,1.0,10.0,27,0.00,,---,0.00,VWS V14.01,2013-06-23 05:40:00,
2013-06-22 22:45:00,74.8,38.6,29.68,SW,217,10.0,12.0,27,0.00,,---,0.00,VWS V14.01,2013-06-23 05:45:00,
2013-06-22 22:50:00,74.7,38.5,29.68,SW,219,5.0,12.0,27,0.00,,---,0.00,VWS V14.01,2013-06-23 05:50:00,
2013-06-22 22:55:00,74.8,37.7,29.68,SW,232,2.0,12.0,26,0.00,,---,0.00,VWS V14.01,2013-06-23 05:55:00,
2013-06-22 23:00:00,74.8,38.6,29.68,WSW,256,6.0,13.0,27,0.00,,---,0.00,VWS V14.01,2013-06-23 06:00:00,
2013-06-22 23:01:00,74.8,38.6,29.68,WSW,242,3.0,13.0,27,0.00,,---,0.00,VWS V14.01,2013-06-23 06:01:00,
2013-06-22 23:06:00,74.7,38.5,29.68,SW,229,6.0,13.0,27,0.00,,---,0.00,VWS V14.01,2013-06-23 06:06:00,
2013-06-22 23:11:00,74.6,37.5,29.68,WSW,255,5.0,13.0,26,0.00,,---,0.00,VWS V14.01,2013-06-23 06:11:00,
2013-06-22 23:16:00,75.0,35.8,29.67,West,259,6.0,13.0,24,0.00,,---,0.00,VWS V14.01,2013-06-23 06:16:00,
2013-06-22 23:21:00,75.5,36.2,29.67,West,262,8.0,15.0,24,0.00,,---,0.00,VWS V14.01,2013-06-23 06:21:00,
2013-06-22 23:26:00,75.6,36.3,29.67,West,263,11.0,15.0,24,0.00,,---,0.00,VWS V14.01,2013-06-23 06:26:00,
2013-06-22 23:31:00,75.8,35.4,29.68,West,267,10.0,15.0,23,0.00,,---,0.00,VWS V14.01,2013-06-23 06:31:00,
2013-06-22 23:36:00,75.9,35.5,29.68,WSW,243,4.0,15.0,23,0.00,,---,0.00,VWS V14.01,2013-06-23 06:36:00,
2013-06-22 23:41:00,75.8,36.5,29.68,SW,217,8.0,15.0,24,0.00,,---,0.00,VWS V14.01,2013-06-23 06:41:00,
2013-06-22 23:46:00,75.4,37.2,29.68,WSW,257,1.0,15.0,25,0.00,,---,0.00,VWS V14.01,2013-06-23 06:46:00,
2013-06-22 23:51:00,75.1,38.9,29.68,West,264,3.0,15.0,27,0.00,,---,0.00,VWS V14.01,2013-06-23 06:51:00,
2013-06-22 23:56:00,74.5,40.2,29.67,WSW,250,2.0,15.0,29,0.00,,---,0.00,VWS V14.01,2013-06-23 06:56:00,